Skip Page Navigation
NASA JPL Caltech
NASA Logo - Jet Propulsion Laboratory + View the NASA Portal
+ Center for Near-Earth Object Studies
JPL Home Earth Solar System Stars & Galaxies Technology
JPL Solar System Dynamics
BODIES ORBITS EPHEMERIDES TOOLS PHYSICAL DATA DISCOVERY FAQ SITE MAP
JPL Small-Body Database Browser
Search: [ help ]  
235894 (2005 CD62)
Classification: Main-belt Asteroid          SPK-ID: 2235894
Ephemeris | Orbit Diagram | Orbital Elements | Mission Design | Physical Parameters | Discovery Circumstances | Close-Approach Data ]

[ hide orbit diagram ]

For accurate long-term ephemerides, please instead use our Horizons system.This orbit viewer was implemented using two-body methods, and hence should not be used for determining accurate long-term trajectories (over several years or decades) or planetary encounter circumstances.


[ revert to old Java-based viewer ]

Orbital Elements at Epoch 2459000.5 (2020-May-31.0) TDB
Reference: JPL 19 (heliocentric ecliptic J2000)
 Element Value Uncertainty (1-sigma)   Units 
e .1296585502286851 5.6881e-08  
a 3.14426416381137 3.7472e-08 au
q 2.736583430795578 1.8118e-07 au
i 5.214299106800863 5.1011e-06 deg
node 104.9167628674297 6.678e-05 deg
peri 39.79519256363982 6.9773e-05 deg
M 272.8729567527527 2.1456e-05 deg
tp 2459493.364390000200
(2021-Oct-05.86439000)
0.00012574 TDB
period 2036.465072004814
5.58
3.6405e-05
9.967e-08
d
yr
n .1767769086486689 3.1601e-09 deg/d
Q 3.551944896827161 4.2331e-08 au
  Orbit Determination Parameters
   # obs. used (total)      377  
   data-arc span      7602 days (20.81 yr)  
   first obs. used      1999-01-09  
   last obs. used      2019-11-02  
   planetary ephem.      DE431  
   SB-pert. ephem.      SB431-N16  
   condition code      0  
   norm. resid. RMS      .61125  
   source      ORB  
   producer      Otto Matic  
   solution date      2019-Dec-04 18:02:31  

Additional Information
 Earth MOID = 1.75162 au 
 Jupiter MOID = 1.475 au 
 T_jup = 3.190 
[ hide covariance matrix ]
Orbital Elements at Epoch 2457317.5 (2015-Oct-22.0) TDB
Reference: JPL 19 (heliocentric ecliptic J2000)
 Element Value Uncertainty (1-sigma)   Units 
e .1289595882096983 5.7631e-08  
q 2.739092753459133 1.8373e-07 au
tp 2457463.182354636953
(2016-Mar-15.68235464)
0.0001106 TDB
node 105.0213417651508 6.6774e-05 deg
peri 40.85577925204304 6.972e-05 deg
i 5.214425508192916 5.103e-06 deg
  Orbit Determination Parameters
   # obs. used (total)      377  
   data-arc span      7602 days (20.81 yr)  
   first obs. used      1999-01-09  
   last obs. used      2019-11-02  
   planetary ephem.      DE431  
   SB-pert. ephem.      SB431-N16  
   condition code      0  
   norm. resid. RMS      .61125  
   source      ORB  
   producer      Otto Matic  
   solution date      2019-Dec-04 18:02:31  

Additional Information
 Jupiter MOID = 1.475 au 
 T_jup = 3.190 
Orbit Covariance (6×6)
  e q tp node peri i
e 3.321347264154037E-15 -1.041968898120586E-14 1.372931939529815E-12 2.88410065925089E-14 3.028013415249193E-13 1.320079052595045E-15
q -1.041968898120586E-14 3.37572769930652E-14 -3.437952574964575E-12 -9.079589759593116E-14 -8.096388250816257E-13 -2.866297249929248E-15
tp 1.372931939529815E-12 -3.437952574964575E-12 1.223324629413481E-8 -4.221399803028279E-12 2.277817323939723E-9 2.518230850093646E-12
node 2.88410065925089E-14 -9.079589759593116E-14 -4.221399803028279E-12 4.458738945869786E-9 -4.43997764440724E-9 7.486909518485707E-11
peri 3.028013415249193E-13 -8.096388250816257E-13 2.277817323939723E-9 -4.43997764440724E-9 4.860936887891002E-9 -7.410546113777378E-11
i 1.320079052595045E-15 -2.866297249929248E-15 2.518230850093646E-12 7.486909518485707E-11 -7.410546113777378E-11 2.604072025059143E-11

Ephemeris | Orbit Diagram | Orbital Elements | Mission Design | Physical Parameters | Discovery Circumstances | Close-Approach Data ]

Physical Parameter Table
Parameter Symbol Value Units Sigma Reference Notes
absolute magnitude H 15.5   n/a MPO413123  
diameter diameter 4.730 km 0.282 urn:nasa:pds:neowise_diameters_albedos::2.0[mainbelt] (http://adsabs.harvard.edu/abs/2011ApJ...741...68M)  
geometric albedo albedo 0.055   0.020 urn:nasa:pds:neowise_diameters_albedos::2.0[mainbelt] (http://adsabs.harvard.edu/abs/2011ApJ...741...68M)  

235894 (2005 CD62)          Discovered 2005-Feb-14 by Lowe, A. at Mayhill
Reference: 20100330/Numbers.arcLast Updated: 2010-04-05

[ show close-approach data ]
Ephemeris | Orbit Diagram | Orbital Elements | Mission Design | Physical Parameters | Discovery Circumstances | Close-Approach Data ]
ABOUT SSD CREDITS/AWARDS PRIVACY/COPYRIGHT GLOSSARY LINKS
FirstGov 2020-Oct-21 05:40 UT
(server date/time)  
NASA Home Page
Site Manager:   Ryan S. Park
Webmaster  Alan B. Chamberlin